[[{"header":{"parameterUnit":"m.s-1","parameterCategory":1,"la1":30.2991,"la2":30.254,"lo1":-89.0895,"lo2":-89.0444,"dy":0.0017,"dx":0.0017,"nx":28,"ny":28,"refTime":"2024-03-30T09:00:00:Z","depth":0,"parameterNumber":2,"parameterNumberName":"U-component_of_WINDS"},"data":[0,0,0,0,0,0,0,0,0,0,0,0,0,0,0,0,0,0,0,0,0,0,0,0,0,0,0,0,0,0,0,0,0,0,0,0,0,0,0,0,0,0,0,0,0,0,0,0,0,0,0,0,0,0,0,0,0,0,-2.5657,-2.5658,0,-2.5726,-2.5727,-2.5728,-2.5725,-2.5724,-2.5723,-2.5722,-2.5792,-2.5794,-2.5797,0,0,0,0,0,0,0,0,0,0,0,0,0,-2.552,-2.5523,-2.5657,-2.5658,-2.5659,-2.5726,-2.5727,-2.5728,-2.5725,-2.5724,-2.5723,-2.5722,-2.5791,-2.5794,-2.5797,0,0,0,0,0,0,0,0,0,0,0,0,0,-2.5583,-2.5524,-2.5657,-2.5665,-2.5667,-2.5726,-2.5727,-2.5728,-2.5725,-2.5724,-2.5723,-2.5721,-2.579,-2.5794,-2.5798,-2.5852,0,0,-2.5811,-2.5812,0,0,0,0,0,0,0,0,-2.558,-2.5588,-2.5663,-2.5665,-2.5667,-2.5716,-2.5704,-2.577,-2.5726,-2.5703,-2.5722,-2.5721,-2.5767,-2.5773,-2.5789,-2.5856,-2.5859,-2.5811,-2.5813,-2.5815,-2.5816,0,0,0,0,0,0,0,-2.5576,-2.5585,-2.5684,-2.5664,-2.5666,-2.5665,-2.5673,-2.5717,-2.5743,-2.5705,-2.5705,-2.5713,-2.5768,-2.5786,-2.5791,-2.586,-2.5811,-2.5814,-2.5817,-2.5819,-2.5972,-2.5974,0,0,0,0,0,0,-2.5569,-2.5582,-2.5682,-2.5686,-2.5619,-2.5669,-2.5677,-2.5701,-2.5742,-2.5747,-2.5714,-2.5713,-2.5779,-2.5786,-2.5794,-2.5859,-2.5815,-2.5819,-2.5821,-2.5971,-2.5973,-2.5974,0,0,0,0,0,0,-2.5567,-2.5578,-2.5679,-2.5634,-2.5647,-2.5673,-2.57,-2.5703,-2.5721,-2.5749,-2.5754,-2.5728,-2.5778,-2.5788,-2.5838,-2.5861,-2.5821,-2.5825,-2.5969,-2.5971,-2.5974,-2.599,0,0,0,0,0,0,-2.5563,-2.5577,-2.5599,-2.5635,-2.5649,-2.5723,-2.5701,-2.5706,-2.5728,-2.5727,-2.5763,-2.5767,-2.5778,-2.5831,-2.5842,-2.5866,-2.5828,-2.5967,-2.597,-2.5973,-2.5988,-2.5993,-2.5998,0,0,0,0,0,-2.5558,-2.5601,-2.56,-2.5612,-2.5677,-2.5724,-2.5732,-2.5744,-2.573,-2.5751,-2.5769,-2.5766,-2.5857,-2.5837,-2.5848,-2.5874,-2.5965,-2.5969,-2.5973,-2.5986,-2.5992,-2.5997,0,0,0,0,0,0,-2.5567,-2.5606,-2.5605,-2.5661,-2.5689,-2.5723,-2.5751,-2.5751,-2.5783,-2.578,-2.5793,-2.5801,-2.5851,-2.5868,-2.5844,-2.5928,-2.5909,-2.5915,-2.5915,-2.5922,-2.5926,-2.5921,-2.5831,0,0,0,0,0,-2.5576,-2.5611,-2.5643,-2.5689,-2.5704,-2.5725,-2.5746,-2.5752,-2.5782,-2.5794,-2.5816,-2.5844,-2.5879,-2.5901,-2.5935,-2.5991,-2.5998,-2.6014,-2.6019,-2.6023,-2.6028,-2.6057,-2.6064,-2.5986,-2.5986,-2.5986,0,0,-2.5593,-2.5619,-2.5641,-2.5692,-2.5714,-2.575,-2.5735,-2.5774,-2.58,-2.5799,-2.5847,-2.5865,-2.5897,-2.5949,-2.5974,-2.5965,-2.6051,-2.6028,-2.603,-2.6033,-2.6061,-2.6068,-2.6075,-2.5989,-2.5988,-2.5988,0,0,-2.5644,-2.5668,-2.5708,-2.5731,-2.5766,-2.5779,-2.5789,-2.5823,-2.5835,-2.5883,-2.5883,-2.5915,-2.5975,-2.5997,-2.6017,-2.6076,-2.6073,-2.6086,-2.6111,-2.6139,-2.6146,-2.6151,-2.617,-2.6178,-2.6091,-2.6091,-2.6091,0,-2.5662,-2.5717,-2.5729,-2.5768,-2.579,-2.5791,-2.5832,-2.5853,-2.5897,-2.5912,-2.5901,-2.5976,-2.5998,-2.6055,-2.607,-2.6086,-2.6096,-2.6082,-2.6144,-2.6149,-2.6155,-2.6173,-2.6181,-2.6092,-2.6092,-2.6092,-2.6092,0,-2.5736,-2.5774,-2.5802,-2.5844,-2.587,-2.5909,-2.5927,-2.5951,-2.5955,-2.597,-2.6018,-2.6045,-2.6083,-2.6098,-2.6103,-2.6155,-2.6149,-2.6141,-2.6122,-2.6163,-2.6181,-2.6188,-2.6094,-2.6094,-2.6093,-2.6093,0,0,-2.5794,-2.5842,-2.5852,-2.5871,-2.5909,-2.5938,-2.5977,-2.6015,-2.6035,-2.6065,-2.6097,-2.6148,-2.6141,-2.6163,-2.617,-2.6195,-2.6238,-2.6184,-2.6185,-2.6192,-2.6296,-2.63,-2.6308,-2.6237,-2.6239,-2.624,-2.6293,0,-2.5848,-2.5917,-2.593,-2.599,-2.6025,-2.6026,-2.606,-2.6087,-2.6101,-2.6132,-2.6148,-2.6183,-2.6172,-2.6185,-2.621,-2.6227,-2.6259,-2.6224,-2.6266,-2.6267,-2.6256,-2.6318,-2.6323,-2.6372,-2.63,-2.6301,-2.6302,0,-2.5919,-2.5951,-2.6015,-2.6047,-2.6062,-2.6093,-2.6128,-2.6158,-2.6187,-2.6196,-2.622,-2.6225,-2.6264,-2.6244,-2.6298,-2.6275,-2.6293,-2.6304,-2.6306,-2.6309,-2.6286,-2.6321,-2.6388,-2.6395,-2.6313,-2.6312,-2.6312,0,-2.5953,-2.6012,-2.6058,-2.6074,-2.6113,-2.6134,-2.6151,-2.618,-2.6201,-2.6232,-2.6246,-2.6281,-2.63,-2.6326,-2.6339,-2.6324,-2.6392,-2.6374,-2.6399,-2.6399,-2.6412,-2.6411,-2.6481,-2.6426,-2.6426,-2.6426,-2.6426,0,-2.6011,-2.605,-2.6073,-2.6101,-2.6144,-2.6158,-2.62,-2.6217,-2.6242,-2.6272,-2.6276,-2.6305,-2.6321,-2.6351,-2.6362,-2.6404,-2.6413,-2.642,-2.6422,-2.6419,-2.6418,-2.643,-2.6427,-2.6428,-2.6428,-2.6427,-2.6427,0,-2.6056,-2.6074,-2.6123,-2.6156,-2.6165,-2.6195,-2.6223,-2.625,-2.6264,-2.6303,-2.6313,-2.6335,-2.6371,-2.6387,-2.6432,-2.6439,-2.6487,-2.6487,-2.6477,-2.6477,-2.6501,-2.6498,-2.658,-2.6591,-2.6531,-2.6531,-2.6532,0,-2.6091,-2.6121,-2.6157,-2.6178,-2.6196,-2.6229,-2.6251,-2.6266,-2.6288,-2.6324,-2.6346,-2.6382,-2.6412,-2.6469,-2.6489,-2.6523,-2.6523,-2.6549,-2.6528,-2.6523,-2.6521,-2.6519,-2.6521,-2.6553,-2.6553,-2.6554,-2.6554,0,-2.6151,-2.6158,-2.619,-2.6225,-2.6251,-2.6279,-2.6306,-2.6323,-2.6341,-2.6366,-2.6403,-2.6426,-2.6472,-2.6507,-2.6542,-2.6559,-2.6559,-2.6561,-2.6568,-2.6565,-2.6557,-2.656,-2.6486,-2.6559,-2.6558,-2.6558,-2.6558,-2.6558,-2.6191,-2.6217,-2.6246,-2.6281,-2.6303,-2.6329,-2.6355,-2.6373,-2.6404,-2.6442,-2.6448,-2.6487,-2.6515,-2.6562,-2.658,-2.6611,-2.6604,-2.6615,-2.6618,-2.662,-2.6621,-2.6553,-2.6617,-2.6617,-2.6617,-2.6617,-2.6617,0,-2.625,-2.6269,-2.6301,-2.6339,-2.6366,-2.6365,-2.6395,-2.6417,-2.6452,-2.6478,-2.6507,-2.6549,-2.6583,-2.6606,-2.664,-2.666,-2.6661,-2.6668,-2.6666,-2.667,-2.6625,-2.6615,-2.6667,-2.6667,-2.6667,-2.6667,-2.6667,-2.6667,-2.6283,-2.6327,-2.6337,-2.6391,-2.641,-2.6448,-2.6465,-2.6488,-2.6509,-2.6556,-2.6584,-2.6599,-2.6623,-2.6659,-2.669,-2.6696,-2.6708,-2.6715,-2.672,-2.6678,-2.6673,-2.6668,-2.6658,-2.6718,-2.6718,-2.6762,-2.6762,-2.6763]},{"header":{"parameterUnit":"m.s-1","parameterCategory":1,"la1":30.2991,"la2":30.254,"lo1":-89.0895,"lo2":-89.0444,"dy":0.0017,"dx":0.0017,"nx":28,"ny":28,"refTime":"2024-03-30T09:00:00:Z","depth":0,"parameterNumber":3,"parameterNumberName":"V-component_of_WINDS"},"data":[0,0,0,0,0,0,0,0,0,0,0,0,0,0,0,0,0,0,0,0,0,0,0,0,0,0,0,0,0,0,0,0,0,0,0,0,0,0,0,0,0,0,0,0,0,0,0,0,0,0,0,0,0,0,0,0,0,0,2.7348,2.7348,0,2.7363,2.7363,2.7363,2.7333,2.7332,2.7331,2.733,2.7345,2.7347,2.7348,0,0,0,0,0,0,0,0,0,0,0,0,0,2.7294,2.7295,2.7348,2.7348,2.7349,2.7363,2.7363,2.7363,2.7334,2.7332,2.7331,2.733,2.7345,2.7346,2.7348,0,0,0,0,0,0,0,0,0,0,0,0,0,2.7314,2.7295,2.7348,2.7335,2.7334,2.7363,2.7363,2.7364,2.7334,2.7332,2.7331,2.7329,2.7344,2.7346,2.7348,2.739,0,0,2.7354,2.7355,0,0,0,0,0,0,0,0,2.7313,2.7316,2.7337,2.7336,2.7335,2.7345,2.7349,2.7372,2.7334,2.7334,2.733,2.7329,2.7346,2.7348,2.7354,2.739,2.7391,2.7354,2.7356,2.7356,2.7357,0,0,0,0,0,0,0,2.7311,2.7315,2.7354,2.7337,2.7336,2.7329,2.733,2.7354,2.7348,2.7334,2.7332,2.7334,2.7345,2.7352,2.7354,2.7391,2.7354,2.7356,2.7357,2.7358,2.7463,2.7465,0,0,0,0,0,0,2.7312,2.7314,2.7354,2.7355,2.732,2.7331,2.7332,2.7343,2.7348,2.7347,2.7335,2.7332,2.735,2.7352,2.7355,2.7404,2.7356,2.7358,2.7359,2.7462,2.7464,2.7465,0,0,0,0,0,0,2.7311,2.7316,2.7353,2.7334,2.7338,2.7334,2.7346,2.7344,2.7351,2.7349,2.7348,2.7343,2.7348,2.7352,2.7381,2.7404,2.7359,2.7361,2.746,2.7462,2.7465,2.7503,0,0,0,0,0,0,2.7309,2.7315,2.7331,2.7334,2.7339,2.738,2.7347,2.7346,2.7355,2.7351,2.7356,2.7355,2.7348,2.7379,2.7383,2.7406,2.7362,2.7458,2.7461,2.7464,2.75,2.7506,2.7512,0,0,0,0,0,2.7307,2.7341,2.7332,2.7337,2.7359,2.7381,2.7384,2.7374,2.7356,2.7372,2.7371,2.7355,2.7401,2.7382,2.7387,2.741,2.7456,2.746,2.7464,2.7497,2.7505,2.7512,0,0,0,0,0,0,2.734,2.7341,2.7331,2.7367,2.7374,2.7376,2.7396,2.7383,2.7396,2.7392,2.738,2.7381,2.7413,2.7415,2.7394,2.7451,2.7425,2.743,2.7449,2.7457,2.7463,2.7462,2.7364,0,0,0,0,0,2.7352,2.737,2.737,2.7401,2.7405,2.74,2.7409,2.7402,2.7409,2.7411,2.7412,2.7419,2.7435,2.7446,2.7461,2.75,2.75,2.7518,2.7525,2.753,2.7534,2.7555,2.7563,2.7477,2.7477,2.7477,0,0,2.7375,2.7378,2.739,2.7408,2.7413,2.7432,2.7403,2.7424,2.7438,2.7414,2.7443,2.7444,2.7451,2.7486,2.7501,2.7488,2.7558,2.7534,2.7539,2.754,2.756,2.7568,2.7575,2.748,2.7479,2.7479,0,0,2.7428,2.7432,2.7459,2.7465,2.7472,2.7469,2.7475,2.7479,2.7479,2.7507,2.749,2.7506,2.7534,2.754,2.7547,2.7603,2.7589,2.7608,2.7641,2.7662,2.7668,2.7674,2.7695,2.7702,2.7612,2.7613,2.7613,0,2.7457,2.7485,2.7474,2.7497,2.7506,2.7486,2.7513,2.7519,2.7531,2.7537,2.7522,2.7557,2.7561,2.7597,2.761,2.7616,2.7624,2.7607,2.7668,2.7674,2.7679,2.7699,2.7706,2.7615,2.7615,2.7614,2.7614,0,2.752,2.754,2.756,2.7573,2.7584,2.7609,2.7602,2.7614,2.7606,2.7604,2.7633,2.7636,2.7652,2.7659,2.7651,2.7695,2.7686,2.767,2.7644,2.769,2.7708,2.7715,2.7618,2.7617,2.7617,2.7616,0,0,2.7593,2.76,2.7608,2.7614,2.7621,2.7636,2.766,2.7675,2.7686,2.7695,2.7715,2.774,2.7725,2.7733,2.7725,2.7743,2.7788,2.7725,2.7725,2.7737,2.7836,2.7849,2.7857,2.7779,2.778,2.7781,2.7836,0,2.7646,2.7688,2.7679,2.772,2.7739,2.772,2.7741,2.7748,2.7747,2.7763,2.7761,2.7779,2.7758,2.7762,2.778,2.7779,2.7808,2.7775,2.7798,2.7798,2.7796,2.7867,2.7879,2.7931,2.7843,2.7844,2.7845,0,2.7713,2.7725,2.7768,2.7773,2.778,2.7799,2.7813,2.7828,2.7835,2.7833,2.7842,2.7831,2.7855,2.7829,2.7863,2.784,2.7849,2.785,2.7852,2.7854,2.7824,2.787,2.7947,2.7955,2.7856,2.7855,2.7854,0,2.7763,2.779,2.7819,2.7824,2.7831,2.7845,2.7848,2.7854,2.7864,2.7876,2.7882,2.7896,2.7904,2.7916,2.7909,2.789,2.7944,2.7917,2.7943,2.7943,2.7955,2.7954,2.8034,2.796,2.796,2.796,2.796,0,2.7822,2.7849,2.7841,2.7859,2.7889,2.788,2.7909,2.791,2.7916,2.7934,2.7919,2.7936,2.7926,2.7943,2.7937,2.7966,2.797,2.7969,2.7967,2.797,2.797,2.7976,2.7972,2.7962,2.7962,2.7961,2.7961,0,2.7883,2.7879,2.7909,2.7913,2.7915,2.7937,2.794,2.7957,2.7955,2.7978,2.7982,2.7979,2.7998,2.7992,2.8012,2.8009,2.8045,2.8039,2.8043,2.8041,2.8068,2.8066,2.8154,2.8165,2.8084,2.8085,2.8086,0,2.7921,2.7942,2.7948,2.7959,2.7964,2.7982,2.7992,2.7983,2.7994,2.8005,2.8021,2.8038,2.8051,2.8082,2.8082,2.8097,2.8091,2.8121,2.8093,2.8096,2.8092,2.8091,2.8093,2.8127,2.8128,2.8128,2.8129,0,2.799,2.7987,2.8003,2.8018,2.803,2.8041,2.8051,2.8061,2.8053,2.8066,2.8086,2.8096,2.8117,2.8134,2.8149,2.8152,2.814,2.8138,2.8145,2.8148,2.815,2.815,2.8058,2.8136,2.8135,2.8135,2.8134,2.8134,2.8041,2.8059,2.8066,2.8084,2.809,2.81,2.8116,2.8116,2.8132,2.8149,2.8143,2.8165,2.8172,2.819,2.8195,2.8212,2.8201,2.8211,2.8213,2.8216,2.822,2.8147,2.8215,2.8215,2.8214,2.8214,2.8214,0,2.811,2.8114,2.813,2.8144,2.8158,2.8146,2.8156,2.8169,2.8188,2.8196,2.821,2.8232,2.8249,2.8251,2.8267,2.828,2.8275,2.8285,2.8284,2.8285,2.8229,2.8221,2.8289,2.8289,2.8289,2.8289,2.8289,2.8289,2.8147,2.8176,2.8174,2.8207,2.821,2.8232,2.8239,2.8248,2.8254,2.828,2.8294,2.8295,2.83,2.8317,2.8332,2.8332,2.8339,2.8351,2.8349,2.8296,2.8289,2.8282,2.8275,2.8352,2.8353,2.8404,2.8404,2.8404]}]]